Language: 


Des rapports , des résumés tant et plus, au choix de chacun....


Données statistiques de la station
Quotidien Rapport Septembre 6, 2017 Unités:  Métrique    Anglais   les deux
« Précédent Jour
Suivant Jour »
Quotidien Hebdomadaire Mensuel Annuel Actuel
  Haut: Bas: Moyen:
Température: 21.0 °C 0.0 °C 17 °C
Pt de rosée: 17.0 °C 7.0 °C 12.7 °C
Humidité: 97 % 0 % 77 %
Vitesse du vent: 21.9 km/h 0.0 km/h 8.8 km/h
Rafales: 27.4 km/h - -
Vent:- - West
Pression: 1018.8 hPa 1014.1 hPa -
Précipitation: 0.5 mm    
Historical Graphs
 
 
Données statistiques pour Septembre 6, 2017
Heure Température Point de rosée Pression Vent Vitesse du vent Refales Humidité Pluie (taux horaire)
00:03 17.8 °C 17.0 °C 1014.1 hPa WSW 9.7 km/h 16.9 km/h 96 % 0.0 mm
00:08 17.8 °C 17.0 °C 1014.1 hPa WSW 6.9 km/h 16.9 km/h 96 % 0.0 mm
00:13 17.8 °C 17.0 °C 1014.1 hPa SW 2.6 km/h 10.5 km/h 96 % 0.0 mm
00:18 17.8 °C 17.0 °C 1014.1 hPa WSW 9.0 km/h 10.5 km/h 96 % 0.0 mm
00:23 17.8 °C 17.0 °C 1014.1 hPa West 9.0 km/h 16.9 km/h 96 % 0.0 mm
00:28 17.8 °C 17.0 °C 1014.1 hPa SW 12.6 km/h 16.9 km/h 96 % 0.0 mm
00:33 17.8 °C 17.0 °C 1014.1 hPa SW 14.8 km/h 15.4 km/h 97 % 0.0 mm
00:38 17.8 °C 17.0 °C 1014.1 hPa SW 14.8 km/h 15.4 km/h 97 % 0.3 mm
00:43 17.6 °C 17.0 °C 1014.1 hPa WSW 11.6 km/h 14.8 km/h 97 % 0.5 mm
00:49 17.6 °C 17.0 °C 1014.1 hPa WSW 12.2 km/h 14.8 km/h 97 % 0.5 mm
00:54 17.5 °C 17.0 °C 1014.1 hPa West 9.7 km/h 12.2 km/h 97 % 0.5 mm
00:59 17.5 °C 17.0 °C 1014.1 hPa West 14.0 km/h 14.0 km/h 97 % 0.5 mm
01:04 17.5 °C 17.0 °C 1014.1 hPa WSW 7.9 km/h 14.0 km/h 97 % 0.5 mm
01:09 17.5 °C 17.0 °C 1014.1 hPa SSW 6.1 km/h 11.6 km/h 97 % 0.5 mm
01:14 17.5 °C 17.0 °C 1014.1 hPa WSW 13.0 km/h 15.4 km/h 97 % 0.5 mm
01:19 17.5 °C 17.0 °C 1014.1 hPa SW 7.9 km/h 15.4 km/h 97 % 0.5 mm
01:24 17.5 °C 17.0 °C 1014.1 hPa SW 9.0 km/h 10.8 km/h 97 % 0.5 mm
01:29 17.5 °C 17.0 °C 1014.1 hPa WSW 8.7 km/h 9.3 km/h 97 % 0.5 mm
01:34 17.5 °C 17.0 °C 1014.1 hPa WSW 13.7 km/h 13.7 km/h 97 % 0.5 mm
01:39 17.5 °C 17.0 °C 1014.1 hPa West 10.5 km/h 13.7 km/h 97 % 0.3 mm
01:44 17.4 °C 17.0 °C 1014.1 hPa WSW 10.5 km/h 13.7 km/h 97 % 0.0 mm
01:49 17.4 °C 17.0 °C 1014.1 hPa WSW 11.6 km/h 11.6 km/h 97 % 0.0 mm
01:54 17.4 °C 17.0 °C 1014.1 hPa WSW 10.8 km/h 11.6 km/h 97 % 0.0 mm
01:59 17.4 °C 17.0 °C 1014.1 hPa WSW 7.9 km/h 11.9 km/h 97 % 0.0 mm
02:05 17.4 °C 17.0 °C 1014.1 hPa WSW 6.1 km/h 16.9 km/h 97 % 0.0 mm
02:10 17.4 °C 17.0 °C 1014.1 hPa South 6.1 km/h 16.9 km/h 97 % 0.0 mm
02:13 17.5 °C 17.0 °C 1014.1 hPa West 10.1 km/h 11.9 km/h 97 % 0.0 mm
02:18 17.5 °C 17.0 °C 1014.1 hPa West 3.2 km/h 11.9 km/h 97 % 0.0 mm
02:23 17.5 °C 17.0 °C 1014.1 hPa WSW 14.0 km/h 14.8 km/h 97 % 0.0 mm
02:28 17.5 °C 17.0 °C 1014.1 hPa West 9.7 km/h 16.9 km/h 97 % 0.0 mm
02:33 17.5 °C 17.0 °C 1014.1 hPa WSW 10.1 km/h 16.9 km/h 97 % 0.0 mm
02:38 17.6 °C 17.0 °C 1014.1 hPa West 17.2 km/h 17.2 km/h 97 % 0.0 mm
02:43 17.6 °C 17.0 °C 1014.1 hPa West 15.8 km/h 17.2 km/h 97 % 0.0 mm
02:48 17.6 °C 17.0 °C 1014.1 hPa WSW 13.0 km/h 15.8 km/h 97 % 0.0 mm
02:53 17.6 °C 17.0 °C 1014.1 hPa WSW 8.7 km/h 15.8 km/h 97 % 0.0 mm
02:58 17.7 °C 17.0 °C 1014.1 hPa West 6.4 km/h 14.0 km/h 97 % 0.0 mm
03:03 0.0 °C 17.0 °C 1015.1 hPa West 10.5 km/h 14.0 km/h 0 % 0.0 mm
03:08 17.7 °C 17.0 °C 1015.1 hPa WSW 12.6 km/h 14.0 km/h 97 % 0.0 mm
03:13 17.7 °C 17.0 °C 1015.1 hPa West 11.6 km/h 14.0 km/h 97 % 0.0 mm
03:18 17.7 °C 17.0 °C 1015.1 hPa West 13.0 km/h 18.3 km/h 97 % 0.0 mm
03:23 17.7 °C 17.0 °C 1015.1 hPa West 14.0 km/h 18.3 km/h 97 % 0.0 mm
03:25 17.8 °C 17.0 °C 1015.1 hPa SW 16.6 km/h 18.3 km/h 97 % 0.0 mm
03:30 17.8 °C 17.0 °C 1015.1 hPa West 10.5 km/h 18.3 km/h 97 % 0.0 mm
03:35 17.8 °C 17.0 °C 1015.1 hPa WNW 9.7 km/h 23.3 km/h 97 % 0.0 mm
03:40 17.7 °C 17.0 °C 1015.1 hPa West 12.2 km/h 23.3 km/h 96 % 0.0 mm
03:45 17.6 °C 17.0 °C 1014.1 hPa West 16.9 km/h 16.9 km/h 96 % 0.0 mm
03:50 17.5 °C 17.0 °C 1014.1 hPa WSW 9.3 km/h 19.8 km/h 96 % 0.0 mm
03:55 17.5 °C 17.0 °C 1014.1 hPa WNW 10.5 km/h 19.8 km/h 96 % 0.0 mm
04:00 17.2 °C 17.0 °C 1015.1 hPa WNW 6.1 km/h 19.5 km/h 95 % 0.0 mm
04:05 17.2 °C 17.0 °C 1015.1 hPa West 12.6 km/h 17.2 km/h 95 % 0.0 mm
04:10 17.0 °C 16.0 °C 1015.1 hPa West 16.9 km/h 17.2 km/h 95 % 0.0 mm
04:15 17.0 °C 16.0 °C 1015.1 hPa WSW 9.3 km/h 20.1 km/h 95 % 0.0 mm
04:20 16.8 °C 16.0 °C 1015.1 hPa WNW 9.0 km/h 20.1 km/h 95 % 0.0 mm
04:25 16.8 °C 16.0 °C 1015.1 hPa WNW 5.8 km/h 16.9 km/h 95 % 0.0 mm
04:30 16.6 °C 16.0 °C 1016.1 hPa WSW 17.2 km/h 17.2 km/h 94 % 0.0 mm
04:35 16.5 °C 16.0 °C 1016.1 hPa West 5.8 km/h 17.2 km/h 93 % 0.0 mm
04:40 16.2 °C 15.0 °C 1016.1 hPa West 10.1 km/h 17.2 km/h 93 % 0.0 mm
04:45 16.0 °C 15.0 °C 1016.1 hPa NW 6.1 km/h 14.3 km/h 93 % 0.0 mm
04:50 15.8 °C 15.0 °C 1016.1 hPa WNW 9.0 km/h 13.7 km/h 93 % 0.0 mm
04:55 15.7 °C 15.0 °C 1016.1 hPa West 7.9 km/h 13.0 km/h 93 % 0.0 mm
05:00 15.7 °C 15.0 °C 1016.1 hPa WNW 6.4 km/h 15.4 km/h 93 % 0.0 mm
05:05 15.6 °C 15.0 °C 1016.1 hPa West 12.6 km/h 15.4 km/h 93 % 0.0 mm
05:10 15.5 °C 14.0 °C 1016.1 hPa WNW 4.0 km/h 13.0 km/h 92 % 0.0 mm
05:15 15.5 °C 14.0 °C 1016.8 hPa West 12.6 km/h 14.0 km/h 92 % 0.0 mm
05:21 15.2 °C 14.0 °C 1016.8 hPa WNW 9.3 km/h 16.3 km/h 92 % 0.0 mm
05:26 15.2 °C 14.0 °C 1016.8 hPa West 9.3 km/h 17.7 km/h 92 % 0.0 mm
05:31 15.0 °C 14.0 °C 1016.8 hPa West 7.9 km/h 17.7 km/h 93 % 0.0 mm
05:36 14.8 °C 14.0 °C 1016.8 hPa West 7.9 km/h 11.9 km/h 93 % 0.0 mm
05:41 14.7 °C 14.0 °C 1016.8 hPa West 9.7 km/h 13.0 km/h 93 % 0.0 mm
05:46 14.7 °C 14.0 °C 1016.8 hPa West 6.1 km/h 13.0 km/h 93 % 0.0 mm
05:51 14.5 °C 14.0 °C 1016.8 hPa West 6.1 km/h 10.1 km/h 94 % 0.0 mm
05:56 14.5 °C 14.0 °C 1016.8 hPa West 4.7 km/h 10.1 km/h 94 % 0.0 mm
06:01 14.4 °C 13.0 °C 1016.8 hPa West 11.9 km/h 11.9 km/h 94 % 0.0 mm
06:06 14.3 °C 13.0 °C 1016.8 hPa WSW 7.6 km/h 11.9 km/h 94 % 0.0 mm
06:11 14.3 °C 13.0 °C 1016.8 hPa West 9.7 km/h 11.9 km/h 94 % 0.0 mm
06:16 14.2 °C 13.0 °C 1018.2 hPa West 9.7 km/h 10.8 km/h 94 % 0.0 mm
06:21 14.2 °C 13.0 °C 1018.2 hPa WSW 10.8 km/h 10.8 km/h 94 % 0.0 mm
06:26 14.2 °C 13.0 °C 1018.2 hPa WSW 7.9 km/h 10.8 km/h 94 % 0.0 mm
06:31 14.0 °C 13.0 °C 1016.8 hPa WSW 6.9 km/h 10.1 km/h 94 % 0.0 mm
06:32 14.0 °C 13.0 °C 1016.8 hPa WSW 6.9 km/h 10.1 km/h 94 % 0.0 mm
06:37 13.9 °C 13.0 °C 1016.8 hPa WSW 7.9 km/h 11.9 km/h 95 % 0.0 mm
06:42 13.9 °C 13.0 °C 1016.8 hPa Calm   11.9 km/h 95 % 0.0 mm
06:47 13.7 °C 13.0 °C 1016.8 hPa West 9.0 km/h 9.0 km/h 95 % 0.0 mm
06:52 13.5 °C 13.0 °C 1016.8 hPa WSW 9.3 km/h 9.3 km/h 95 % 0.0 mm
06:57 13.5 °C 13.0 °C 1016.8 hPa Calm   9.3 km/h 95 % 0.0 mm
07:02 13.4 °C 13.0 °C 1016.1 hPa West 5.5 km/h 9.3 km/h 96 % 0.0 mm
07:07 13.4 °C 13.0 °C 1016.1 hPa West 3.5 km/h 7.9 km/h 96 % 0.0 mm
07:12 13.3 °C 13.0 °C 1016.1 hPa West 7.6 km/h 7.9 km/h 96 % 0.0 mm
07:17 13.2 °C 13.0 °C 1016.8 hPa West 5.8 km/h 7.9 km/h 96 % 0.0 mm
07:22 13.2 °C 13.0 °C 1016.8 hPa Calm   9.3 km/h 96 % 0.0 mm
07:27 13.2 °C 13.0 °C 1016.8 hPa WSW 10.5 km/h 10.5 km/h 97 % 0.0 mm
07:32 13.2 °C 13.0 °C 1016.8 hPa West 6.4 km/h 10.5 km/h 97 % 0.0 mm
07:37 13.2 °C 13.0 °C 1016.8 hPa WSW 4.0 km/h 10.8 km/h 97 % 0.0 mm
07:39 13.2 °C 13.0 °C 1016.8 hPa West 11.6 km/h 11.6 km/h 97 % 0.0 mm
07:44 13.3 °C 13.0 °C 1016.8 hPa West 7.9 km/h 11.6 km/h 97 % 0.0 mm
07:49 13.4 °C 13.0 °C 1016.8 hPa WSW 6.4 km/h 12.2 km/h 97 % 0.0 mm
07:54 13.4 °C 13.0 °C 1016.8 hPa West 4.3 km/h 12.6 km/h 97 % 0.0 mm
07:59 13.7 °C 13.0 °C 1016.8 hPa WSW 9.7 km/h 13.7 km/h 97 % 0.0 mm
08:04 13.7 °C 13.0 °C 1018.2 hPa West 9.0 km/h 13.7 km/h 97 % 0.0 mm
08:09 13.8 °C 13.0 °C 1018.2 hPa WSW 1.8 km/h 12.6 km/h 97 % 0.0 mm
08:14 14.0 °C 14.0 °C 1018.2 hPa West 7.9 km/h 11.9 km/h 96 % 0.0 mm
08:19 14.1 °C 14.0 °C 1018.2 hPa WSW 8.7 km/h 11.9 km/h 96 % 0.0 mm
08:24 14.3 °C 14.0 °C 1018.2 hPa West 11.1 km/h 11.6 km/h 96 % 0.0 mm
08:29 14.4 °C 14.0 °C 1018.2 hPa West 11.9 km/h 12.2 km/h 96 % 0.0 mm
08:34 14.5 °C 14.0 °C 1018.2 hPa WSW 11.9 km/h 12.2 km/h 95 % 0.0 mm
08:35 14.5 °C 14.0 °C 1018.2 hPa West 9.7 km/h 12.2 km/h 95 % 0.0 mm
08:40 14.5 °C 14.0 °C 1018.2 hPa WSW 7.9 km/h 11.9 km/h 95 % 0.0 mm
08:45 14.9 °C 14.0 °C 1018.2 hPa West 4.7 km/h 12.2 km/h 94 % 0.0 mm
08:50 15.1 °C 14.0 °C 1018.2 hPa West 9.7 km/h 12.6 km/h 94 % 0.0 mm
08:55 15.1 °C 14.0 °C 1018.2 hPa West 5.8 km/h 12.6 km/h 94 % 0.0 mm
09:00 15.4 °C 14.0 °C 1018.2 hPa West 13.0 km/h 13.0 km/h 93 % 0.0 mm
09:05 15.5 °C 14.0 °C 1018.2 hPa WSW 12.6 km/h 16.3 km/h 92 % 0.0 mm
09:10 15.5 °C 14.0 °C 1018.2 hPa WSW 10.5 km/h 16.3 km/h 92 % 0.0 mm
09:15 15.8 °C 14.0 °C 1018.2 hPa West 14.8 km/h 14.8 km/h 91 % 0.0 mm
09:20 15.9 °C 14.0 °C 1018.2 hPa West 14.0 km/h 14.8 km/h 90 % 0.0 mm
09:25 16.1 °C 14.0 °C 1018.2 hPa West 14.0 km/h 14.3 km/h 89 % 0.0 mm
09:30 16.2 °C 15.0 °C 1018.2 hPa SSW 10.5 km/h 14.3 km/h 89 % 0.0 mm
09:35 16.2 °C 15.0 °C 1018.2 hPa WNW 9.3 km/h 18.0 km/h 89 % 0.0 mm
09:40 16.7 °C 14.0 °C 1018.2 hPa West 14.0 km/h 18.0 km/h 85 % 0.0 mm
09:45 17.0 °C 14.0 °C 1018.2 hPa West 6.9 km/h 17.7 km/h 84 % 0.0 mm
09:50 17.3 °C 14.0 °C 1018.2 hPa West 17.2 km/h 20.6 km/h 82 % 0.0 mm
09:55 17.2 °C 14.0 °C 1018.2 hPa West 19.1 km/h 20.6 km/h 81 % 0.0 mm
10:00 17.0 °C 14.0 °C 1018.2 hPa West 19.1 km/h 20.6 km/h 80 % 0.0 mm
10:05 17.0 °C 14.0 °C 1018.2 hPa WSW 14.8 km/h 20.1 km/h 80 % 0.0 mm
10:11 16.8 °C 13.0 °C 1018.2 hPa West 11.9 km/h 20.1 km/h 78 % 0.0 mm
10:16 16.8 °C 13.0 °C 1018.8 hPa West 9.3 km/h 19.5 km/h 78 % 0.0 mm
10:21 16.8 °C 13.0 °C 1018.8 hPa West 12.2 km/h 19.1 km/h 78 % 0.0 mm
10:26 16.9 °C 13.0 °C 1018.8 hPa West 14.0 km/h 19.1 km/h 79 % 0.0 mm
10:31 16.9 °C 13.0 °C 1018.8 hPa West 11.6 km/h 14.0 km/h 77 % 0.0 mm
10:36 17.0 °C 13.0 °C 1018.8 hPa West 8.7 km/h 14.0 km/h 78 % 0.0 mm
10:41 17.0 °C 13.0 °C 1018.8 hPa SSW 11.6 km/h 13.7 km/h 77 % 0.0 mm
10:46 17.1 °C 13.0 °C 1018.8 hPa WSW 10.1 km/h 13.7 km/h 79 % 0.0 mm
10:51 17.1 °C 13.0 °C 1018.8 hPa West 10.5 km/h 13.0 km/h 79 % 0.0 mm
10:56 17.1 °C 13.0 °C 1018.8 hPa WSW 13.0 km/h 16.3 km/h 79 % 0.0 mm
11:01 17.1 °C 13.0 °C 1018.8 hPa WNW 12.6 km/h 16.3 km/h 79 % 0.0 mm
11:06 17.0 °C 13.0 °C 1018.8 hPa West 9.0 km/h 14.0 km/h 79 % 0.0 mm
11:11 17.0 °C 13.0 °C 1018.8 hPa West 10.5 km/h 16.6 km/h 79 % 0.0 mm
11:16 17.0 °C 13.0 °C 1018.8 hPa West 9.7 km/h 21.6 km/h 79 % 0.0 mm
11:21 16.7 °C 13.0 °C 1018.8 hPa SSW 7.9 km/h 21.6 km/h 79 % 0.0 mm
11:26 16.7 °C 13.0 °C 1018.8 hPa West 4.7 km/h 16.6 km/h 79 % 0.0 mm
11:31 17.1 °C 13.0 °C 1018.8 hPa West 8.7 km/h 13.0 km/h 79 % 0.0 mm
11:36 17.3 °C 14.0 °C 1018.8 hPa West 10.1 km/h 21.2 km/h 79 % 0.0 mm
11:41 17.4 °C 13.0 °C 1018.8 hPa NW 15.8 km/h 21.2 km/h 78 % 0.0 mm
11:46 17.7 °C 13.0 °C 1018.8 hPa West 6.9 km/h 17.2 km/h 76 % 0.0 mm
11:51 17.8 °C 13.0 °C 1018.8 hPa West 15.4 km/h 17.2 km/h 76 % 0.0 mm
11:56 17.8 °C 13.0 °C 1018.8 hPa West 9.0 km/h 15.4 km/h 76 % 0.0 mm
12:01 17.8 °C 13.0 °C 1018.8 hPa WSW 9.7 km/h 15.4 km/h 76 % 0.0 mm
12:06 17.8 °C 13.0 °C 1018.8 hPa WNW 16.3 km/h 23.0 km/h 76 % 0.0 mm
12:11 18.0 °C 13.0 °C 1018.8 hPa NW 9.7 km/h 23.0 km/h 72 % 0.0 mm
12:16 17.8 °C 13.0 °C 1018.8 hPa West 6.9 km/h 16.9 km/h 72 % 0.0 mm
12:22 17.8 °C 13.0 °C 1018.8 hPa WNW 9.0 km/h 16.9 km/h 72 % 0.0 mm
12:27 18.1 °C 13.0 °C 1018.8 hPa West 12.2 km/h 15.4 km/h 70 % 0.0 mm
12:32 18.5 °C 13.0 °C 1018.8 hPa WNW 9.0 km/h 14.0 km/h 69 % 0.0 mm
12:37 18.7 °C 13.0 °C 1018.8 hPa WNW 8.7 km/h 19.8 km/h 68 % 0.0 mm
12:42 18.7 °C 13.0 °C 1018.8 hPa WNW 5.5 km/h 19.8 km/h 68 % 0.0 mm
12:47 19.7 °C 13.0 °C 1018.8 hPa West 8.7 km/h 11.6 km/h 64 % 0.0 mm
12:52 18.9 °C 12.0 °C 1018.8 hPa West 15.8 km/h 19.5 km/h 64 % 0.0 mm
12:57 18.7 °C 12.0 °C 1018.8 hPa WNW 9.7 km/h 19.5 km/h 65 % 0.0 mm
13:02 18.7 °C 12.0 °C 1018.8 hPa WSW 11.9 km/h 19.5 km/h 65 % 0.0 mm
13:07 18.2 °C 12.0 °C 1018.8 hPa West 5.5 km/h 13.0 km/h 66 % 0.0 mm
13:12 18.2 °C 12.0 °C 1018.8 hPa NNW 18.3 km/h 18.3 km/h 66 % 0.0 mm
13:17 18.0 °C 10.0 °C 1018.8 hPa West 9.3 km/h 18.3 km/h 60 % 0.0 mm
13:22 18.1 °C 11.0 °C 1018.8 hPa WNW 7.9 km/h 12.6 km/h 62 % 0.0 mm
13:27 18.1 °C 11.0 °C 1018.8 hPa West 17.7 km/h 19.8 km/h 62 % 0.0 mm
13:32 18.9 °C 12.0 °C 1018.8 hPa WNW 10.1 km/h 19.8 km/h 64 % 0.0 mm
13:37 18.9 °C 12.0 °C 1018.8 hPa NW 10.1 km/h 17.7 km/h 64 % 0.0 mm
13:42 18.9 °C 12.0 °C 1018.8 hPa West 11.6 km/h 16.6 km/h 64 % 0.0 mm
13:47 19.9 °C 12.0 °C 1018.8 hPa West 11.9 km/h 12.2 km/h 61 % 0.0 mm
13:52 19.9 °C 12.0 °C 1018.8 hPa West 13.0 km/h 13.7 km/h 61 % 0.0 mm
13:57 19.9 °C 12.0 °C 1018.8 hPa WNW 10.1 km/h 16.6 km/h 61 % 0.0 mm
14:02 19.0 °C 9.0 °C 1018.8 hPa WNW 9.0 km/h 16.6 km/h 51 % 0.0 mm
14:07 19.0 °C 9.0 °C 1018.8 hPa West 5.8 km/h 16.6 km/h 51 % 0.0 mm
14:12 18.9 °C 9.0 °C 1018.8 hPa WNW 7.9 km/h 12.6 km/h 52 % 0.0 mm
14:17 18.9 °C 9.0 °C 1018.8 hPa West 8.7 km/h 13.0 km/h 53 % 0.0 mm
14:22 18.9 °C 9.0 °C 1018.8 hPa West 13.7 km/h 16.9 km/h 52 % 0.0 mm
14:27 19.8 °C 10.0 °C 1018.8 hPa West 9.3 km/h 16.9 km/h 55 % 0.0 mm
14:32 19.8 °C 10.0 °C 1018.8 hPa West 17.2 km/h 19.5 km/h 55 % 0.0 mm
14:37 19.6 °C 10.0 °C 1018.8 hPa West 16.3 km/h 21.2 km/h 55 % 0.0 mm
14:43 19.3 °C 8.0 °C 1018.8 hPa WSW 17.2 km/h 24.8 km/h 47 % 0.0 mm
14:48 19.7 °C 9.0 °C 1018.8 hPa West 15.4 km/h 24.8 km/h 48 % 0.0 mm
14:53 19.7 °C 9.0 °C 1018.8 hPa West 21.6 km/h 27.4 km/h 48 % 0.0 mm
14:58 20.5 °C 9.0 °C 1018.8 hPa NW 9.3 km/h 27.4 km/h 48 % 0.0 mm
15:03 20.2 °C 9.0 °C 1018.8 hPa WNW 20.6 km/h 21.6 km/h 47 % 0.0 mm
15:08 20.2 °C 9.0 °C 1018.8 hPa West 19.1 km/h 21.9 km/h 48 % 0.0 mm
15:13 20.0 °C 8.0 °C 1018.8 hPa West 5.8 km/h 21.9 km/h 46 % 0.0 mm
15:14 20.0 °C 8.0 °C 1018.8 hPa North 11.9 km/h 21.9 km/h 46 % 0.0 mm
15:19 20.2 °C 9.0 °C 1018.8 hPa West 16.9 km/h 19.5 km/h 46 % 0.0 mm
15:24 20.9 °C 9.0 °C 1018.8 hPa South 8.7 km/h 23.3 km/h 47 % 0.0 mm
15:29 20.9 °C 9.0 °C 1018.8 hPa West 9.3 km/h 23.3 km/h 47 % 0.0 mm
15:34 20.9 °C 9.0 °C 1018.2 hPa WNW 6.9 km/h 21.2 km/h 47 % 0.0 mm
15:39 20.9 °C 9.0 °C 1018.2 hPa West 16.9 km/h 21.2 km/h 47 % 0.0 mm
15:44 20.5 °C 9.0 °C 1018.2 hPa WNW 16.6 km/h 20.9 km/h 45 % 0.0 mm
15:49 20.2 °C 8.0 °C 1018.2 hPa West 21.9 km/h 21.9 km/h 44 % 0.0 mm
15:54 20.4 °C 8.0 °C 1018.2 hPa West 17.7 km/h 21.9 km/h 44 % 0.0 mm
15:59 20.4 °C 8.0 °C 1018.2 hPa WNW 6.4 km/h 23.8 km/h 44 % 0.0 mm
16:05 20.9 °C 8.0 °C 1018.2 hPa West 9.3 km/h 23.8 km/h 43 % 0.0 mm
16:10 21.0 °C 9.0 °C 1018.2 hPa WSW 6.4 km/h 20.1 km/h 44 % 0.0 mm
16:15 21.0 °C 9.0 °C 1018.2 hPa West 16.6 km/h 20.1 km/h 44 % 0.0 mm
16:20 21.0 °C 8.0 °C 1018.2 hPa West 10.5 km/h 23.8 km/h 43 % 0.0 mm
16:25 20.9 °C 9.0 °C 1018.2 hPa West 12.6 km/h 23.8 km/h 44 % 0.0 mm
16:30 20.9 °C 9.0 °C 1018.2 hPa NW 8.7 km/h 21.9 km/h 44 % 0.0 mm
16:35 21.0 °C 9.0 °C 1018.2 hPa West 14.0 km/h 16.9 km/h 44 % 0.0 mm
16:40 20.7 °C 9.0 °C 1018.2 hPa WNW 12.2 km/h 17.7 km/h 45 % 0.0 mm
16:45 20.6 °C 8.0 °C 1018.2 hPa WNW 7.6 km/h 17.7 km/h 43 % 0.0 mm
16:50 20.7 °C 8.0 °C 1018.2 hPa NW 7.2 km/h 16.6 km/h 43 % 0.0 mm
16:55 20.5 °C 8.0 °C 1018.2 hPa WNW 9.7 km/h 16.6 km/h 44 % 0.0 mm
17:00 20.5 °C 8.0 °C 1018.2 hPa West 10.5 km/h 17.7 km/h 44 % 0.0 mm
17:05 20.0 °C 7.0 °C 1018.2 hPa West 11.1 km/h 17.7 km/h 43 % 0.0 mm
17:10 20.0 °C 7.0 °C 1018.2 hPa NW 7.9 km/h 19.5 km/h 43 % 0.0 mm
17:15 19.7 °C 8.0 °C 1018.2 hPa West 14.0 km/h 19.5 km/h 45 % 0.0 mm
17:20 19.7 °C 8.0 °C 1018.2 hPa WNW 6.1 km/h 19.5 km/h 45 % 0.0 mm
17:25 19.7 °C 8.0 °C 1018.2 hPa WSW 11.9 km/h 19.8 km/h 45 % 0.0 mm
17:30 20.6 °C 9.0 °C 1018.2 hPa West 13.7 km/h 19.8 km/h 45 % 0.0 mm
17:35 20.2 °C 8.0 °C 1018.2 hPa West 14.0 km/h 17.7 km/h 45 % 0.0 mm
17:40 20.2 °C 8.0 °C 1018.2 hPa West 16.9 km/h 17.7 km/h 45 % 0.0 mm
17:45 20.2 °C 8.0 °C 1018.2 hPa NW 5.8 km/h 16.9 km/h 45 % 0.0 mm
17:50 20.2 °C 8.0 °C 1018.2 hPa WSW 16.3 km/h 16.6 km/h 45 % 0.0 mm
17:55 19.2 °C 9.0 °C 1018.2 hPa West 12.2 km/h 17.7 km/h 50 % 0.0 mm
18:00 19.0 °C 9.0 °C 1018.2 hPa West 9.7 km/h 17.7 km/h 51 % 0.0 mm
18:05 19.0 °C 9.0 °C 1018.2 hPa West 5.0 km/h 12.2 km/h 51 % 0.0 mm
18:11 19.0 °C 9.0 °C 1018.2 hPa WSW 13.7 km/h 13.7 km/h 51 % 0.0 mm
18:16 19.0 °C 9.0 °C 1018.2 hPa West 11.1 km/h 14.0 km/h 51 % 0.0 mm
18:21 18.3 °C 9.0 °C 1018.2 hPa West 6.9 km/h 14.0 km/h 55 % 0.0 mm
18:26 18.3 °C 9.0 °C 1018.2 hPa West 7.6 km/h 11.6 km/h 55 % 0.0 mm
18:31 18.3 °C 9.0 °C 1018.2 hPa West 11.6 km/h 11.6 km/h 55 % 0.0 mm
18:36 18.3 °C 9.0 °C 1018.2 hPa WSW 5.8 km/h 11.6 km/h 55 % 0.0 mm
18:41 18.3 °C 9.0 °C 1018.2 hPa West 4.3 km/h 10.1 km/h 55 % 0.0 mm
18:46 18.3 °C 9.0 °C 1018.2 hPa West 5.0 km/h 13.0 km/h 55 % 0.0 mm
18:51 18.3 °C 9.0 °C 1018.2 hPa West 5.8 km/h 13.0 km/h 55 % 0.0 mm
18:56 18.3 °C 9.0 °C 1018.2 hPa West 5.5 km/h 13.0 km/h 55 % 0.0 mm
18:57 18.3 °C 9.0 °C 1018.2 hPa West 6.1 km/h 13.0 km/h 55 % 0.0 mm
19:02 18.3 °C 9.0 °C 1018.8 hPa West 6.1 km/h 13.0 km/h 55 % 0.0 mm
19:07 18.3 °C 9.0 °C 1018.8 hPa WSW 8.7 km/h 9.0 km/h 55 % 0.0 mm
19:12 17.7 °C 11.0 °C 1018.8 hPa West 5.5 km/h 13.0 km/h 63 % 0.0 mm
19:17 17.7 °C 11.0 °C 1018.8 hPa WSW 9.3 km/h 14.3 km/h 63 % 0.0 mm
19:22 17.6 °C 11.0 °C 1018.8 hPa West 6.4 km/h 14.3 km/h 64 % 0.0 mm
19:27 17.6 °C 11.0 °C 1018.8 hPa WNW 9.7 km/h 12.6 km/h 64 % 0.0 mm
19:32 17.6 °C 11.0 °C 1018.8 hPa West 7.6 km/h 12.2 km/h 64 % 0.0 mm
19:37 17.6 °C 11.0 °C 1018.8 hPa West 6.9 km/h 10.8 km/h 64 % 0.0 mm
19:42 17.6 °C 11.0 °C 1018.8 hPa West 5.0 km/h 9.0 km/h 64 % 0.0 mm
19:47 17.2 °C 11.0 °C 1018.8 hPa Calm   9.7 km/h 66 % 0.0 mm
19:52 17.2 °C 11.0 °C 1018.8 hPa WSW 4.7 km/h 9.7 km/h 66 % 0.0 mm
19:57 17.2 °C 11.0 °C 1018.8 hPa WSW 5.5 km/h 10.5 km/h 66 % 0.0 mm
20:02 17.2 °C 11.0 °C 1018.8 hPa WSW 8.7 km/h 10.5 km/h 66 % 0.0 mm
20:07 16.9 °C 11.0 °C 1018.8 hPa WSW 10.5 km/h 10.8 km/h 69 % 0.0 mm
20:12 16.8 °C 11.0 °C 1018.8 hPa West 7.6 km/h 10.8 km/h 69 % 0.0 mm
20:13 16.8 °C 11.0 °C 1018.8 hPa WSW 5.5 km/h 10.8 km/h 69 % 0.0 mm
20:18 16.7 °C 11.0 °C 1018.8 hPa Calm   9.3 km/h 70 % 0.0 mm
20:23 16.6 °C 11.0 °C 1018.8 hPa SW 6.9 km/h 6.9 km/h 70 % 0.0 mm
20:28 16.6 °C 11.0 °C 1018.8 hPa WSW 6.4 km/h 12.2 km/h 70 % 0.0 mm
20:33 16.6 °C 11.0 °C 1018.8 hPa West 9.3 km/h 12.2 km/h 70 % 0.0 mm
20:38 16.6 °C 11.0 °C 1018.8 hPa West 7.9 km/h 10.5 km/h 70 % 0.0 mm
20:39 16.6 °C 11.0 °C 1018.8 hPa West 9.0 km/h 10.5 km/h 70 % 0.0 mm
20:44 16.6 °C 11.0 °C 1018.8 hPa WSW 6.9 km/h 11.9 km/h 70 % 0.0 mm
20:49 16.6 °C 11.0 °C 1018.8 hPa WSW 6.4 km/h 11.9 km/h 70 % 0.0 mm
20:54 16.6 °C 11.0 °C 1018.8 hPa Calm   10.1 km/h 70 % 0.0 mm
20:59 16.6 °C 11.0 °C 1018.8 hPa SW 6.4 km/h 9.7 km/h 70 % 0.0 mm
21:04 16.6 °C 11.0 °C 1018.8 hPa Calm   9.3 km/h 70 % 0.0 mm
21:09 15.9 °C 12.0 °C 1018.8 hPa West 4.0 km/h 9.3 km/h 77 % 0.0 mm
21:14 15.8 °C 12.0 °C 1018.8 hPa West 4.0 km/h 8.7 km/h 77 % 0.0 mm
21:19 15.7 °C 12.0 °C 1018.8 hPa WSW 4.0 km/h 6.9 km/h 77 % 0.0 mm
21:24 15.2 °C 12.0 °C 1018.8 hPa Calm   6.1 km/h 78 % 0.0 mm
21:29 15.2 °C 12.0 °C 1018.8 hPa Calm   4.3 km/h 78 % 0.0 mm
21:34 15.2 °C 12.0 °C 1018.8 hPa Calm   4.3 km/h 78 % 0.0 mm
21:39 15.2 °C 12.0 °C 1018.8 hPa West 5.8 km/h 6.4 km/h 78 % 0.0 mm
21:44 15.2 °C 12.0 °C 1018.8 hPa Calm   6.4 km/h 78 % 0.0 mm
21:49 15.2 °C 12.0 °C 1018.8 hPa Calm   6.4 km/h 78 % 0.0 mm
21:54 15.2 °C 12.0 °C 1018.8 hPa Calm   6.4 km/h 78 % 0.0 mm
21:59 15.2 °C 12.0 °C 1018.8 hPa Calm     78 % 0.0 mm
22:04 15.2 °C 12.0 °C 1018.8 hPa Calm     78 % 0.0 mm
22:09 15.2 °C 12.0 °C 1018.8 hPa Calm     78 % 0.0 mm
22:14 15.2 °C 12.0 °C 1018.8 hPa Calm   1.4 km/h 78 % 0.0 mm
22:19 15.2 °C 12.0 °C 1018.8 hPa Calm   5.0 km/h 78 % 0.0 mm
22:24 15.2 °C 12.0 °C 1018.8 hPa Calm   5.0 km/h 78 % 0.0 mm
22:29 15.2 °C 12.0 °C 1018.8 hPa Calm     78 % 0.0 mm
22:34 15.2 °C 12.0 °C 1018.8 hPa Calm   5.0 km/h 78 % 0.0 mm
22:40 15.2 °C 12.0 °C 1018.8 hPa Calm   5.0 km/h 78 % 0.0 mm
22:45 15.2 °C 12.0 °C 1018.8 hPa Calm     78 % 0.0 mm
22:50 14.6 °C 13.0 °C 1018.8 hPa Calm     87 % 0.0 mm
22:55 14.5 °C 13.0 °C 1018.8 hPa Calm     87 % 0.0 mm
23:00 14.5 °C 13.0 °C 1018.8 hPa WSW 3.5 km/h 3.5 km/h 87 % 0.0 mm
23:05 14.5 °C 13.0 °C 1018.8 hPa Calm   5.8 km/h 89 % 0.0 mm
23:10 14.5 °C 13.0 °C 1018.8 hPa Calm   5.8 km/h 89 % 0.0 mm
23:16 14.5 °C 13.0 °C 1018.8 hPa Calm   5.0 km/h 89 % 0.0 mm
23:21 14.5 °C 13.0 °C 1018.8 hPa Calm     89 % 0.0 mm
23:26 14.5 °C 13.0 °C 1018.8 hPa Calm     89 % 0.0 mm
23:31 14.5 °C 13.0 °C 1018.8 hPa Calm     89 % 0.0 mm
23:36 14.5 °C 13.0 °C 1018.8 hPa Calm     90 % 0.0 mm
23:41 14.5 °C 13.0 °C 1018.8 hPa Calm     90 % 0.0 mm
23:46 14.5 °C 13.0 °C 1018.8 hPa Calm     90 % 0.0 mm
23:51 14.4 °C 13.0 °C 1018.8 hPa Calm     90 % 0.0 mm
23:56 14.2 °C 13.0 °C 1018.8 hPa Calm   2.6 km/h 90 % 0.0 mm
Le Gheer Warneton
Courtoisie de Weather Underground - 2.25 mb

Mise a jour : 18/12/2017 04:19:13
Généré par Cumulus 1.9.4 (1099)